time, Switch, Flow(0), Analog(2)
yyyy/mm/dd HH:MM:SS.fff, True=FILTERED|False=TOTAL, L/min, V
2023/06/23 05:00:01.460, True, 4.635, 0.132296
2023/06/23 05:00:01.956, True, 4.717, 0.132143
2023/06/23 05:00:02.460, True, 4.651, 0.131838
2023/06/23 05:00:02.963, True, 4.634, 0.131762
2023/06/23 05:00:03.459, True, 4.380, 0.132143
2023/06/23 05:00:03.963, True, 3.980, 0.131914
2023/06/23 05:00:04.467, True, 2.658, 0.130617
2023/06/23 05:00:04.964, True, 2.018, 0.133974
2023/06/23 05:00:05.468, True, 1.990, 0.129625
2023/06/23 05:00:05.971, True, 1.990, 0.131075
2023/06/23 05:00:06.468, True, 2.021, 0.131456
2023/06/23 05:00:06.972, True, 1.990, 0.130617
2023/06/23 05:00:07.468, True, 1.685, 0.130465
2023/06/23 05:00:07.972, True, 1.989, 0.130541
2023/06/23 05:00:08.475, True, 1.658, 0.131228
2023/06/23 05:00:08.980, True, 1.990, 0.131533
2023/06/23 05:00:09.476, True, 2.022, 0.131151
2023/06/23 05:00:09.980, True, 1.660, 0.131991
2023/06/23 05:00:10.476, True, 2.019, 0.131533
2023/06/23 05:00:10.980, True, 1.659, 0.129778
2023/06/23 05:00:11.484, True, 1.988, 0.131838
2023/06/23 05:00:11.980, True, 2.022, 0.130388
2023/06/23 05:00:12.484, True, 1.990, 0.133822
2023/06/23 05:00:12.980, True, 2.021, 0.130541
2023/06/23 05:00:13.484, True, 1.658, 0.131075
2023/06/23 05:00:13.988, True, 1.990, 0.133745
2023/06/23 05:00:14.484, True, 2.022, 0.131914
2023/06/23 05:00:14.988, True, 1.658, 0.130770
2023/06/23 05:00:15.492, True, 1.990, 0.132982
2023/06/23 05:00:15.988, True, 2.021, 0.133898
2023/06/23 05:00:16.492, True, 1.658, 0.130922
2023/06/23 05:00:16.996, True, 1.990, 0.130159
2023/06/23 05:00:17.492, True, 2.022, 0.129397
2023/06/23 05:00:17.996, True, 1.990, 0.133288
2023/06/23 05:00:18.499, True, 1.992, 0.130770
2023/06/23 05:00:18.995, True, 2.021, 0.131456
2023/06/23 05:00:19.500, True, 1.990, 0.133364
2023/06/23 05:00:20.003, True, 1.989, 0.131151
2023/06/23 05:00:20.499, True, 2.022, 0.131609
2023/06/23 05:00:21.004, True, 1.658, 0.132906
2023/06/23 05:00:21.508, True, 1.989, 0.132982
2023/06/23 05:00:22.003, True, 2.026, 0.132601
2023/06/23 05:00:22.508, True, 1.986, 0.134356
2023/06/23 05:00:23.012, True, 1.992, 0.130694
2023/06/23 05:00:23.508, True, 2.019, 0.130236
2023/06/23 05:00:24.012, True, 1.989, 0.132067
2023/06/23 05:00:24.516, True, 1.661, 0.131533
2023/06/23 05:00:25.019, True, 1.987, 0.131304
2023/06/23 05:00:25.516, True, 2.022, 0.132296
2023/06/23 05:00:26.020, True, 1.658, 0.131609
2023/06/23 05:00:26.524, True, 1.993, 0.132067
2023/06/23 05:00:27.020, True, 2.018, 0.132906
2023/06/23 05:00:27.524, True, 1.989, 0.132753
2023/06/23 05:00:28.028, True, 1.991, 0.130007
2023/06/23 05:00:28.524, True, 1.685, 0.131151
2023/06/23 05:00:29.028, True, 1.988, 0.130083
2023/06/23 05:00:29.524, True, 2.022, 0.131914
2023/06/23 05:00:30.028, True, 1.990, 0.131228
2023/06/23 05:00:30.532, True, 1.990, 0.129168
2023/06/23 05:00:31.036, True, 1.991, 0.132067
2023/06/23 05:00:31.532, True, 1.683, 0.131914
2023/06/23 05:00:32.036, True, 1.990, 0.130541
2023/06/23 05:00:32.540, True, 1.991, 0.130846
2023/06/23 05:00:33.035, True, 1.687, 0.133898
2023/06/23 05:00:33.540, True, 1.986, 0.132677
2023/06/23 05:00:34.043, True, 1.658, 0.130617
2023/06/23 05:00:34.540, True, 2.022, 0.132296
2023/06/23 05:00:35.044, True, 1.990, 0.129397
2023/06/23 05:00:35.547, True, 1.658, 0.133211
2023/06/23 05:00:36.043, True, 2.022, 0.131991
2023/06/23 05:00:36.548, True, 1.990, 0.134127
2023/06/23 05:00:37.052, True, 1.990, 0.132906
2023/06/23 05:00:37.548, True, 1.684, 0.131991
2023/06/23 05:00:38.052, True, 1.990, 0.134203
2023/06/23 05:00:38.556, True, 1.990, 0.134508
2023/06/23 05:00:39.060, True, 1.989, 0.133974
2023/06/23 05:00:39.556, True, 1.685, 0.137026
2023/06/23 05:00:40.060, True, 1.990, 0.130694
2023/06/23 05:00:40.564, True, 1.989, 0.134279
2023/06/23 05:00:41.060, True, 2.024, 0.133669
2023/06/23 05:00:41.564, True, 1.656, 0.133974
2023/06/23 05:00:42.068, True, 1.990, 0.133822
2023/06/23 05:00:42.564, True, 2.022, 0.136339
2023/06/23 05:00:43.068, True, 1.991, 0.138705
2023/06/23 05:00:43.572, True, 1.987, 0.139010
2023/06/23 05:00:44.068, True, 1.685, 0.137102
2023/06/23 05:00:44.572, True, 1.989, 0.141070
2023/06/23 05:00:45.076, True, 1.990, 0.139849
2023/06/23 05:00:45.579, True, 1.993, 0.141375
2023/06/23 05:00:46.076, True, 2.021, 0.141604
2023/06/23 05:00:46.580, True, 1.987, 0.139086
2023/06/23 05:00:47.084, True, 1.658, 0.140536
2023/06/23 05:00:47.580, True, 2.023, 0.140917
2023/06/23 05:00:48.084, True, 1.988, 0.141375
2023/06/23 05:00:48.587, True, 1.990, 0.141604
2023/06/23 05:00:49.084, True, 2.021, 0.141985
2023/06/23 05:00:49.588, True, 1.658, 0.139544
2023/06/23 05:00:50.092, True, 1.991, 0.140459
2023/06/23 05:00:50.588, True, 2.021, 0.141604
2023/06/23 05:00:51.092, True, 1.658, 0.143435
2023/06/23 05:00:51.596, True, 1.990, 0.141833
2023/06/23 05:00:52.091, True, 2.025, 0.141375
2023/06/23 05:00:52.596, True, 1.987, 0.142519
2023/06/23 05:00:53.100, True, 1.659, 0.141527
2023/06/23 05:00:53.596, True, 2.021, 0.139544
2023/06/23 05:00:54.100, True, 1.990, 0.142214
2023/06/23 05:00:54.604, True, 1.990, 0.143740
2023/06/23 05:00:55.099, True, 2.024, 0.143587
2023/06/23 05:00:55.604, True, 1.656, 0.142672
2023/06/23 05:00:56.108, True, 1.990, 0.141756
2023/06/23 05:00:56.604, True, 2.025, 0.143130
2023/06/23 05:00:57.108, True, 1.655, 0.142901
2023/06/23 05:00:57.612, True, 1.990, 0.145113
2023/06/23 05:00:58.116, True, 1.658, 0.142290
2023/06/23 05:00:58.612, True, 2.021, 0.144427
2023/06/23 05:00:59.116, True, 1.991, 0.142596
2023/06/23 05:00:59.620, True, 1.989, 0.145495
2023/06/23 05:01:00.115, True, 2.022, 0.142901
2023/06/23 05:01:00.620, True, 1.989, 0.145037
2023/06/23 05:01:01.123, True, 1.991, 0.145037
2023/06/23 05:01:01.628, True, 1.989, 0.142596
2023/06/23 05:01:02.124, True, 1.684, 0.142519
2023/06/23 05:01:02.628, True, 1.989, 0.140993
2023/06/23 05:01:03.132, True, 1.990, 0.142824
2023/06/23 05:01:03.628, True, 1.688, 0.142596
2023/06/23 05:01:04.132, True, 1.986, 0.144884
2023/06/23 05:01:04.636, True, 1.989, 0.143969
2023/06/23 05:01:05.140, True, 1.990, 0.144732
2023/06/23 05:01:05.636, True, 2.024, 0.144503
2023/06/23 05:01:06.140, True, 1.657, 0.145724
2023/06/23 05:01:06.644, True, 1.990, 0.145190
2023/06/23 05:01:07.140, True, 2.021, 0.145800
2023/06/23 05:01:07.644, True, 1.990, 0.143359
2023/06/23 05:01:08.147, True, 1.658, 0.143816
2023/06/23 05:01:08.643, True, 2.022, 0.143740
2023/06/23 05:01:09.148, True, 1.989, 0.142901
2023/06/23 05:01:09.651, True, 1.990, 0.145495
2023/06/23 05:01:10.147, True, 2.022, 0.146029
2023/06/23 05:01:10.652, True, 1.990, 0.144121
2023/06/23 05:01:11.155, True, 1.990, 0.144350
2023/06/23 05:01:11.651, True, 1.685, 0.144579
2023/06/23 05:01:12.156, True, 1.990, 0.143130
2023/06/23 05:01:12.652, True, 2.021, 0.143130
2023/06/23 05:01:13.155, True, 1.659, 0.143359
2023/06/23 05:01:13.659, True, 1.989, 0.143435
2023/06/23 05:01:14.155, True, 2.024, 0.144198
2023/06/23 05:01:14.659, True, 1.987, 0.143435
2023/06/23 05:01:15.163, True, 1.990, 0.144884
2023/06/23 05:01:15.659, True, 2.022, 0.144427
2023/06/23 05:01:16.164, True, 1.990, 0.143893
2023/06/23 05:01:16.668, True, 1.659, 0.143282
2023/06/23 05:01:17.163, True, 1.684, 0.144350
2023/06/23 05:01:17.668, True, 1.990, 0.143359
2023/06/23 05:01:18.164, True, 1.685, 0.144045
2023/06/23 05:01:18.668, True, 1.991, 0.146258
2023/06/23 05:01:19.171, True, 1.989, 0.145495
2023/06/23 05:01:19.675, True, 1.991, 0.146563
2023/06/23 05:01:20.172, True, 2.021, 0.141222
2023/06/23 05:01:20.675, True, 1.657, 0.144274
2023/06/23 05:01:21.180, True, 1.991, 0.142824
2023/06/23 05:01:21.675, True, 2.022, 0.145647
2023/06/23 05:01:22.180, True, 1.987, 0.141985
2023/06/23 05:01:22.684, True, 1.658, 0.144274
2023/06/23 05:01:23.187, True, 1.992, 0.144961
2023/06/23 05:01:23.683, True, 1.685, 0.144732
2023/06/23 05:01:24.188, True, 1.658, 0.143816
2023/06/23 05:01:24.692, True, 1.987, 0.142901
2023/06/23 05:01:25.195, True, 1.658, 0.144427
2023/06/23 05:01:25.692, True, 2.022, 0.143206
2023/06/23 05:01:26.196, True, 1.990, 0.142824
2023/06/23 05:01:26.700, True, 1.658, 0.143359
2023/06/23 05:01:27.196, True, 2.025, 0.144045
2023/06/23 05:01:27.700, True, 1.986, 0.145190
2023/06/23 05:01:28.204, True, 1.658, 0.141680
2023/06/23 05:01:28.700, True, 2.022, 0.142901
2023/06/23 05:01:29.204, True, 1.989, 0.144045
2023/06/23 05:01:29.707, True, 1.991, 0.145571
2023/06/23 05:01:30.204, True, 1.684, 0.144427
2023/06/23 05:01:30.708, True, 1.989, 0.144579
2023/06/23 05:01:31.211, True, 1.990, 0.144503
2023/06/23 05:01:31.708, True, 2.021, 0.141985
2023/06/23 05:01:32.212, True, 1.658, 0.144121
2023/06/23 05:01:32.716, True, 1.990, 0.145647
2023/06/23 05:01:33.212, True, 2.022, 0.142977
2023/06/23 05:01:33.716, True, 1.989, 0.144121
2023/06/23 05:01:34.220, True, 1.658, 0.144198
2023/06/23 05:01:34.715, True, 2.022, 0.143435
2023/06/23 05:01:35.220, True, 1.990, 0.146105
2023/06/23 05:01:35.723, True, 1.658, 0.143511
2023/06/23 05:01:36.220, True, 2.022, 0.143664
2023/06/23 05:01:36.724, True, 1.990, 0.142748
2023/06/23 05:01:37.228, True, 1.989, 0.144427
2023/06/23 05:01:37.724, True, 2.022, 0.143969
2023/06/23 05:01:38.227, True, 1.990, 0.144656
2023/06/23 05:01:38.732, True, 1.990, 0.141451
2023/06/23 05:01:39.228, True, 1.686, 0.145342
2023/06/23 05:01:39.732, True, 1.989, 0.142748
2023/06/23 05:01:40.236, True, 1.989, 0.142977
2023/06/23 05:01:40.732, True, 1.685, 0.142824
2023/06/23 05:01:41.235, True, 1.990, 0.143511
2023/06/23 05:01:41.740, True, 1.990, 0.142061
2023/06/23 05:01:42.236, True, 1.685, 0.142443
2023/06/23 05:01:42.739, True, 1.989, 0.142443
2023/06/23 05:01:43.244, True, 1.992, 0.141756
2023/06/23 05:01:43.740, True, 2.019, 0.141985
2023/06/23 05:01:44.244, True, 1.989, 0.141680
2023/06/23 05:01:44.748, True, 1.989, 0.144732
2023/06/23 05:01:45.244, True, 1.686, 0.140307
2023/06/23 05:01:45.748, True, 1.989, 0.143206
2023/06/23 05:01:46.252, True, 1.658, 0.142519
2023/06/23 05:01:46.756, True, 1.990, 0.143206
2023/06/23 05:01:47.252, True, 1.685, 0.141680
2023/06/23 05:01:47.756, True, 1.990, 0.143435
2023/06/23 05:01:48.251, True, 1.684, 0.141833
2023/06/23 05:01:48.756, True, 1.990, 0.141680
2023/06/23 05:01:49.260, True, 1.658, 0.139544
2023/06/23 05:01:49.756, True, 2.021, 0.144045
2023/06/23 05:01:50.260, True, 1.660, 0.143282
2023/06/23 05:01:50.764, True, 1.987, 0.142672
2023/06/23 05:01:51.260, True, 2.026, 0.142214
2023/06/23 05:01:51.764, True, 1.655, 0.141222
2023/06/23 05:01:52.267, True, 1.989, 0.143740
2023/06/23 05:01:52.772, True, 1.991, 0.142748
2023/06/23 05:01:53.267, True, 1.684, 0.143359
2023/06/23 05:01:53.772, True, 1.990, 0.142977
2023/06/23 05:01:54.267, True, 2.022, 0.141299
2023/06/23 05:01:54.772, True, 1.989, 0.140459
2023/06/23 05:01:55.275, True, 1.990, 0.141451
2023/06/23 05:01:55.772, True, 2.022, 0.143282
2023/06/23 05:01:56.275, True, 1.658, 0.140459
2023/06/23 05:01:56.779, True, 1.658, 0.141146
2023/06/23 05:01:57.275, True, 2.022, 0.141146
2023/06/23 05:01:57.780, True, 1.658, 0.141909
2023/06/23 05:01:58.283, True, 1.990, 0.142290
2023/06/23 05:01:58.780, True, 2.022, 0.141070
2023/06/23 05:01:59.283, True, 1.990, 0.142061
2023/06/23 05:01:59.787, True, 1.658, 0.141375
2023/06/23 05:02:00.283, True, 2.024, 0.139315
2023/06/23 05:02:00.788, True, 1.656, 0.141604
2023/06/23 05:02:01.291, True, 1.989, 0.140078
2023/06/23 05:02:01.787, True, 2.024, 0.141146
2023/06/23 05:02:02.291, True, 1.657, 0.139925
2023/06/23 05:02:02.795, True, 1.989, 0.140917
2023/06/23 05:02:03.299, True, 1.662, 0.141756
2023/06/23 05:02:03.796, True, 2.018, 0.141680
2023/06/23 05:02:04.299, True, 1.989, 0.140917
2023/06/23 05:02:04.795, True, 1.685, 0.140993
2023/06/23 05:02:05.299, True, 1.992, 0.142672
2023/06/23 05:02:05.803, True, 1.986, 0.139696
2023/06/23 05:02:06.299, True, 1.685, 0.140307
2023/06/23 05:02:06.804, True, 1.990, 0.143893
2023/06/23 05:02:07.307, True, 1.989, 0.140993
2023/06/23 05:02:07.803, True, 2.026, 0.141756
2023/06/23 05:02:08.307, True, 1.655, 0.142977
2023/06/23 05:02:08.811, True, 1.989, 0.141146
2023/06/23 05:02:09.315, True, 1.991, 0.142367
2023/06/23 05:02:09.811, True, 2.022, 0.142443
2023/06/23 05:02:10.315, True, 1.657, 0.140764
2023/06/23 05:02:10.811, True, 2.021, 0.141451
2023/06/23 05:02:11.315, True, 1.992, 0.139391
2023/06/23 05:02:11.819, True, 1.656, 0.141375
2023/06/23 05:02:12.315, True, 2.022, 0.139467
2023/06/23 05:02:12.820, True, 1.660, 0.141070
2023/06/23 05:02:13.323, True, 1.987, 0.139849
2023/06/23 05:02:13.819, True, 1.684, 0.141833
2023/06/23 05:02:14.324, True, 1.990, 0.140688
2023/06/23 05:02:14.827, True, 1.989, 0.140841
2023/06/23 05:02:15.331, True, 1.994, 0.142367
2023/06/23 05:02:15.827, True, 1.682, 0.140764
2023/06/23 05:02:16.331, True, 1.989, 0.140841
2023/06/23 05:02:16.835, True, 1.658, 0.139467
2023/06/23 05:02:17.331, True, 2.022, 0.140154
2023/06/23 05:02:17.835, True, 1.658, 0.142061
2023/06/23 05:02:18.340, True, 1.989, 0.142443
2023/06/23 05:02:18.835, True, 2.022, 0.140764
2023/06/23 05:02:19.339, True, 1.658, 0.141375
2023/06/23 05:02:19.844, True, 1.989, 0.141604
2023/06/23 05:02:20.339, True, 2.022, 0.140841
2023/06/23 05:02:20.844, True, 1.658, 0.143282
2023/06/23 05:02:21.339, True, 2.023, 0.139773
2023/06/23 05:02:21.843, True, 1.989, 0.140459
2023/06/23 05:02:22.347, True, 1.989, 0.141909
2023/06/23 05:02:22.852, True, 1.990, 0.138781
2023/06/23 05:02:23.348, True, 2.021, 0.141375
2023/06/23 05:02:23.851, True, 1.991, 0.139086
2023/06/23 05:02:24.355, True, 1.988, 0.140917
2023/06/23 05:02:24.852, True, 1.685, 0.138552
2023/06/23 05:02:25.355, True, 1.990, 0.140459
2023/06/23 05:02:25.859, True, 1.993, 0.140002
2023/06/23 05:02:26.356, True, 1.682, 0.140993
2023/06/23 05:02:26.859, True, 1.990, 0.140383
2023/06/23 05:02:27.364, True, 1.989, 0.139696
2023/06/23 05:02:27.868, True, 1.658, 0.138247
2023/06/23 05:02:28.364, True, 2.021, 0.140612
2023/06/23 05:02:28.868, True, 1.991, 0.139544
2023/06/23 05:02:29.372, True, 1.988, 0.140459
2023/06/23 05:02:29.868, True, 1.684, 0.138705
2023/06/23 05:02:30.371, True, 1.992, 0.140841
2023/06/23 05:02:30.867, True, 2.019, 0.141985
2023/06/23 05:02:31.371, True, 1.658, 0.141527
2023/06/23 05:02:31.876, True, 1.990, 0.140078
2023/06/23 05:02:32.372, True, 2.021, 0.140612
2023/06/23 05:02:32.875, True, 1.990, 0.138018
2023/06/23 05:02:33.379, True, 1.659, 0.138552
2023/06/23 05:02:33.876, True, 2.021, 0.140078
2023/06/23 05:02:34.379, True, 1.989, 0.140841
2023/06/23 05:02:34.875, True, 2.022, 0.138933
2023/06/23 05:02:35.379, True, 1.659, 0.139315
2023/06/23 05:02:35.883, True, 1.988, 0.142061
2023/06/23 05:02:36.387, True, 1.990, 0.138247
2023/06/23 05:02:36.883, True, 2.021, 0.138933
2023/06/23 05:02:37.387, True, 1.992, 0.138933
2023/06/23 05:02:37.892, True, 1.657, 0.139544
2023/06/23 05:02:38.387, True, 2.024, 0.141070
2023/06/23 05:02:38.891, True, 1.656, 0.140536
2023/06/23 05:02:39.395, True, 1.990, 0.139315
2023/06/23 05:02:39.899, True, 1.989, 0.140459
2023/06/23 05:02:40.395, True, 2.022, 0.139849
2023/06/23 05:02:40.899, True, 1.989, 0.140841
2023/06/23 05:02:41.403, True, 1.658, 0.139086
2023/06/23 05:02:41.899, True, 2.021, 0.138170
2023/06/23 05:02:42.403, True, 1.991, 0.138552
2023/06/23 05:02:42.907, True, 1.988, 0.139544
2023/06/23 05:02:43.403, True, 2.022, 0.139391
2023/06/23 05:02:43.907, True, 1.658, 0.139925
2023/06/23 05:02:44.411, True, 1.989, 0.140841
2023/06/23 05:02:44.907, True, 2.026, 0.139849
2023/06/23 05:02:45.411, True, 1.988, 0.138857
2023/06/23 05:02:45.915, True, 1.656, 0.139086
2023/06/23 05:02:46.411, True, 2.022, 0.138018
2023/06/23 05:02:46.915, True, 1.992, 0.140154
2023/06/23 05:02:47.419, True, 1.656, 0.139773
2023/06/23 05:02:47.915, True, 2.022, 0.138094
2023/06/23 05:02:48.418, True, 1.993, 0.139010
2023/06/23 05:02:48.923, True, 1.988, 0.139010
2023/06/23 05:02:49.419, True, 1.684, 0.139239
2023/06/23 05:02:49.923, True, 1.991, 0.138170
2023/06/23 05:02:50.427, True, 1.990, 0.139773
2023/06/23 05:02:50.923, True, 1.685, 0.137636
2023/06/23 05:02:51.427, True, 1.986, 0.138018
2023/06/23 05:02:51.931, True, 1.990, 0.140459
2023/06/23 05:02:52.427, True, 1.685, 0.140307
2023/06/23 05:02:52.931, True, 1.992, 0.139315
2023/06/23 05:02:53.435, True, 1.989, 0.137331
2023/06/23 05:02:53.931, True, 1.687, 0.140078
2023/06/23 05:02:54.435, True, 1.986, 0.139315
2023/06/23 05:02:54.939, True, 1.990, 0.137407
2023/06/23 05:02:55.443, True, 1.989, 0.140307
2023/06/23 05:02:55.939, True, 1.686, 0.138323
2023/06/23 05:02:56.443, True, 1.989, 0.140002
2023/06/23 05:02:56.947, True, 1.992, 0.139544
2023/06/23 05:02:57.443, True, 2.019, 0.140230
2023/06/23 05:02:57.947, True, 1.658, 0.139010
2023/06/23 05:02:58.451, True, 1.991, 0.140383
2023/06/23 05:02:58.955, True, 1.657, 0.140459
2023/06/23 05:02:59.451, True, 2.024, 0.138399
2023/06/23 05:02:59.955, True, 1.656, 0.137179
2023/06/23 05:03:00.459, True, 1.990, 0.140230
2023/06/23 05:03:00.955, True, 2.022, 0.138247
2023/06/23 05:03:01.459, True, 1.658, 0.137713
2023/06/23 05:03:01.962, True, 1.989, 0.139773
2023/06/23 05:03:02.459, True, 2.023, 0.140078
2023/06/23 05:03:02.963, True, 1.989, 0.137407
2023/06/23 05:03:03.467, True, 1.989, 0.138857
2023/06/23 05:03:03.963, True, 1.687, 0.138476
2023/06/23 05:03:04.467, True, 1.988, 0.138018
2023/06/23 05:03:04.971, True, 1.990, 0.136873
2023/06/23 05:03:05.467, True, 1.685, 0.139620
2023/06/23 05:03:05.971, True, 1.990, 0.138323
2023/06/23 05:03:06.467, True, 1.685, 0.139086
2023/06/23 05:03:06.971, True, 1.990, 0.138933
2023/06/23 05:03:07.475, True, 1.658, 0.138018
2023/06/23 05:03:07.979, True, 1.991, 0.136721
2023/06/23 05:03:08.475, True, 1.684, 0.136645
2023/06/23 05:03:08.979, True, 1.989, 0.136110
2023/06/23 05:03:09.483, True, 1.658, 0.139239
2023/06/23 05:03:09.979, True, 2.022, 0.138170
2023/06/23 05:03:10.483, True, 1.990, 0.136721
2023/06/23 05:03:10.979, True, 1.685, 0.137789
2023/06/23 05:03:11.483, True, 1.658, 0.138628
2023/06/23 05:03:11.987, True, 1.989, 0.139010
2023/06/23 05:03:12.491, True, 1.989, 0.137865
2023/06/23 05:03:12.987, True, 1.685, 0.138781
2023/06/23 05:03:13.491, True, 1.658, 0.138933
2023/06/23 05:03:13.987, True, 2.022, 0.136873
2023/06/23 05:03:14.491, True, 1.990, 0.137865
2023/06/23 05:03:14.995, True, 1.990, 0.137560
2023/06/23 05:03:15.491, True, 2.022, 0.137942
2023/06/23 05:03:15.995, True, 1.658, 0.139315
2023/06/23 05:03:16.499, True, 1.990, 0.137026
2023/06/23 05:03:16.995, True, 1.685, 0.136416
2023/06/23 05:03:17.499, True, 1.990, 0.138094
2023/06/23 05:03:18.003, True, 1.658, 0.138094
2023/06/23 05:03:18.499, True, 2.022, 0.136492
2023/06/23 05:03:19.003, True, 1.990, 0.138705
2023/06/23 05:03:19.507, True, 1.990, 0.137255
2023/06/23 05:03:20.003, True, 1.685, 0.137560
2023/06/23 05:03:20.507, True, 1.989, 0.135348
2023/06/23 05:03:21.011, True, 1.990, 0.137560
2023/06/23 05:03:21.507, True, 2.021, 0.137713
2023/06/23 05:03:22.011, True, 1.989, 0.138781
2023/06/23 05:03:22.515, True, 1.990, 0.138476
2023/06/23 05:03:23.011, True, 1.684, 0.136645
2023/06/23 05:03:23.515, True, 1.990, 0.137865
2023/06/23 05:03:24.019, True, 1.658, 0.137484
2023/06/23 05:03:24.515, True, 2.022, 0.135729
2023/06/23 05:03:25.019, True, 1.990, 0.138476
2023/06/23 05:03:25.523, True, 1.989, 0.137713
2023/06/23 05:03:26.019, True, 2.022, 0.136797
2023/06/23 05:03:26.523, True, 1.993, 0.139086
2023/06/23 05:03:27.027, True, 1.655, 0.136721
2023/06/23 05:03:27.531, True, 1.989, 0.136645
2023/06/23 05:03:28.027, True, 2.022, 0.137026
2023/06/23 05:03:28.531, True, 1.990, 0.136263
2023/06/23 05:03:29.035, True, 1.658, 0.134356
2023/06/23 05:03:29.531, True, 2.022, 0.139391
2023/06/23 05:03:30.035, True, 1.991, 0.138018
2023/06/23 05:03:30.539, True, 1.989, 0.136492
2023/06/23 05:03:31.035, True, 1.685, 0.135729
2023/06/23 05:03:31.539, True, 1.990, 0.134737
2023/06/23 05:03:32.035, True, 2.022, 0.136263
2023/06/23 05:03:32.539, True, 1.990, 0.135882
2023/06/23 05:03:33.043, True, 1.990, 0.136568
2023/06/23 05:03:33.539, True, 2.021, 0.137331
2023/06/23 05:03:34.043, True, 1.661, 0.135576
2023/06/23 05:03:34.547, True, 1.986, 0.138628
2023/06/23 05:03:35.043, True, 1.685, 0.135576
2023/06/23 05:03:35.547, True, 1.990, 0.137331
2023/06/23 05:03:36.051, True, 1.657, 0.136034
2023/06/23 05:03:36.555, True, 1.990, 0.134661
2023/06/23 05:03:37.051, True, 2.022, 0.137026
2023/06/23 05:03:37.555, True, 1.658, 0.135271
2023/06/23 05:03:38.059, True, 1.989, 0.135424
2023/06/23 05:03:38.555, True, 2.022, 0.135729
2023/06/23 05:03:39.059, True, 1.658, 0.136950
2023/06/23 05:03:39.563, True, 1.989, 0.137713
2023/06/23 05:03:40.059, True, 2.022, 0.134127
2023/06/23 05:03:40.563, True, 1.989, 0.137331
2023/06/23 05:03:41.067, True, 1.990, 0.135729
2023/06/23 05:03:41.563, True, 1.685, 0.136950
2023/06/23 05:03:42.067, True, 1.989, 0.138857
2023/06/23 05:03:42.571, True, 1.990, 0.136110
2023/06/23 05:03:43.067, True, 2.022, 0.137713
2023/06/23 05:03:43.571, True, 1.990, 0.136492
2023/06/23 05:03:44.075, True, 1.989, 0.136568
2023/06/23 05:03:44.571, True, 2.022, 0.136339
2023/06/23 05:03:45.075, True, 1.990, 0.135958
2023/06/23 05:03:45.579, True, 1.659, 0.136797
2023/06/23 05:03:46.075, True, 2.020, 0.135576
2023/06/23 05:03:46.579, True, 1.659, 0.136568
2023/06/23 05:03:47.083, True, 1.987, 0.134432
2023/06/23 05:03:47.578, True, 1.688, 0.135424
2023/06/23 05:03:48.083, True, 1.986, 0.135805
2023/06/23 05:03:48.579, True, 2.022, 0.136339
2023/06/23 05:03:49.083, True, 1.989, 0.134356
2023/06/23 05:03:49.587, True, 1.990, 0.136873
2023/06/23 05:03:50.083, True, 2.021, 0.136721
2023/06/23 05:03:50.587, True, 1.658, 0.133745
2023/06/23 05:03:51.091, True, 1.990, 0.135424
2023/06/23 05:03:51.587, True, 2.021, 0.134890
2023/06/23 05:03:52.091, True, 1.991, 0.136034
2023/06/23 05:03:52.595, True, 1.660, 0.136263
2023/06/23 05:03:53.091, True, 2.019, 0.136263
2023/06/23 05:03:53.595, True, 1.993, 0.136492
2023/06/23 05:03:54.099, True, 1.986, 0.136339
2023/06/23 05:03:54.603, True, 1.660, 0.135500
2023/06/23 05:03:55.099, True, 1.682, 0.135958
2023/06/23 05:03:55.603, True, 1.990, 0.138018
2023/06/23 05:03:56.107, True, 1.989, 0.134432
2023/06/23 05:03:56.611, True, 1.989, 0.136339
2023/06/23 05:03:57.107, True, 2.022, 0.134813
2023/06/23 05:03:57.611, True, 1.658, 0.137484
2023/06/23 05:03:58.115, True, 1.988, 0.135119
2023/06/23 05:03:58.611, True, 1.688, 0.136492
2023/06/23 05:03:59.115, True, 1.986, 0.136797
2023/06/23 05:03:59.619, True, 1.990, 0.137179
2023/06/23 05:04:00.115, True, 2.022, 0.138247
2023/06/23 05:04:00.619, True, 1.989, 0.137102
2023/06/23 05:04:01.115, True, 1.685, 0.135729
2023/06/23 05:04:01.619, True, 1.989, 0.135958
2023/06/23 05:04:02.123, True, 1.990, 0.135042
2023/06/23 05:04:02.619, True, 2.021, 0.136339
2023/06/23 05:04:03.123, True, 1.658, 0.135958
2023/06/23 05:04:03.627, True, 1.990, 0.137255
2023/06/23 05:04:04.123, True, 2.022, 0.136492
2023/06/23 05:04:04.627, True, 1.989, 0.136950
2023/06/23 05:04:05.131, True, 1.990, 0.136263
2023/06/23 05:04:05.635, True, 1.990, 0.136645
2023/06/23 05:04:06.131, True, 1.685, 0.135424
2023/06/23 05:04:06.635, True, 1.989, 0.136263
2023/06/23 05:04:07.139, True, 1.990, 0.133822
2023/06/23 05:04:07.635, True, 1.684, 0.136721
2023/06/23 05:04:08.139, True, 1.658, 0.133822
2023/06/23 05:04:08.635, True, 2.025, 0.136034
2023/06/23 05:04:09.139, True, 1.987, 0.140536
2023/06/23 05:04:09.643, True, 1.658, 0.134508
2023/06/23 05:04:10.139, True, 2.022, 0.136110
2023/06/23 05:04:10.643, True, 1.989, 0.137560